Weather in Sanyyakhtakh

Russia / Sakha (Yakutia) Republic     60°35′06″N   124°03′54″E
temp.,
°C
wind,
m/s
gust,
m/s
humid.,
%
clouds,
%
prec.,
mm/h
press.,
hPa
HPBL,
m
29 january, fri
fri2900:00−45se119869 0.0 103418
03:00−42ne009682 0.0 103429
06:00−41nne0198100 0.1 103372
09:00−40n0098100 0.1 103466
12:00−38nnw1193100 0.1 1034220
15:00−37nnw1293100 0.1 1035276
18:00−37nw1298100 0.1 1036136
21:00−37wnw1298100 0.1 1037157
30 january, sat
sat3000:00−37wnw1298100 0.1 1037174
03:00−37nw1398100 0.1 1037148
06:00−38nw1198100 0.0 103720
09:00−38nw1298100 0.1 103753
12:00−37nw1291100 0.0 1036429
15:00−36nw1291100 0.1 1034454
18:00−37nnw1198100 0.0 103421
21:00−38wnw1198100 0.1 103418
31 january, sun
sun3100:00−39nw1199100 0.1 103418
03:00−42ne009998 0.1 103418
06:00−44sw0010099 0.0 103418
09:00−45sw019882 0.0 103518
12:00−40w019255 0.0 1035198
15:00−38wnw128562 0.0 1035438
18:00−43wnw119462 0.0 103718
21:00−44w119560 0.0 103918
1 february, mon
mon100:00−45wsw119477 0.0 103918
03:00−44sw129487 0.0 104030
06:00−43wsw129491 0.0 103951
09:00−43wsw129693 0.0 103856
12:00−39wnw259395 0.0 1036324
15:00−37wnw269092 0.0 1034455
18:00−40w239563 0.0 103449
21:00−41wsw229766 0.0 103348
2 february, tue
tue200:00−41w229878 0.0 103239
03:00−41wsw229785 0.0 103239
06:00−41wsw2297100 0.0 103155
09:00−42wsw2297100 0.0 103044
12:00−38w2593100 0.0 1028358
15:00−36w2690100 0.0 1026570
18:00−38w1296100 0.0 102620
21:00−39wsw1297100 0.0 102621